COSMOS 1275 DEB, 18639

Orbit data source: Space-Track

COSMOS 1275 DEB, 18639 is space debris in LEO originally from a launch on Thu, 04 Jun 1981 UTC launched from the Plesetsk Missile And Space Complex (PKMTR). Debris objects in space refer to the collection of defunct objects orbiting the Earth. Examples of debris include non-operational satellites, rocket bodies, and fragments generated from explosions, collisions, or faulty payload assembly.

Loading next visibility...
Identifier
18639, 1981-053LZ
Orbit
LEO
Country
Flag of CISCIS
Related business
Manufacturer
Unknown
Mission
Spacecraft
Bus & Motor
Unknown
Mass
Unknown
Launch date (UTC)
1981-06-04 (45 years ago)
Launch vehicle
Unknown
Launch site
Plesetsk Missile And Space Complex (PKMTR)
Object type
Payload
Rocket body
Debris
Shape & HBR
Unknown shape, 0.1 m
Radar Cross Section
Small (<0.1 m²)

Expand to show TLE details & history
Last TLE update: 2 days ago

TLE from 2 days ago
0 COSMOS 1275 DEB
1 18639U 81053LZ  26103.43625184  .00000938  00000-0  10036-2 0  9991
2 18639  83.0632 185.9451 0136898 332.7943 145.4822 13.68960623 29427
Epoch: 2026-04-13T10:28Z
TLE epoch observation values (Epoch: 2026-04-13T10:28:12.158Z)
Latitude
60.19508°
Longitude
-4.93165°
Altitude
1,097.266 km
Speed
7.268 km/s
True Right ascension
23h 34m 59s
True Declination
60° 03' 12"
Sunlit
Object was in daylight at epoch
Visualization orbit readout
Latitude
Unknown
Longitude
Unknown
Altitude
Unknown
Speed
Unknown
Apparent Right ascension
Unknown
Apparent Declination
Unknown
Sunlit
N/A
Visualization observer readout
Local Sidereal Time
06:12:46
Azimuth
Unknown
Elevation
Unknown
Doppler factor
Unknown
Orbital elements
Apogee altitude
1,101.468 km
Perigee altitude
899.445 km
Semi-major axis
7,378.594 km
Eccentricity
0.01369
Inclination
83.0632°
RAAN
185.9451°
Arg. of periapsis
332.7943°
True anomaly
146.35874°
Mean anomaly
145.4822°
Eccentric anomaly
145.9217°
Mean motion
3.42439 °/min
Orbital period
105.13 mins
BSTAR
0.0010036
Loading maneuver chart data...
Computing Atmospheric mass density...
Loading historical data...
Loading historical data...
Loading historical data...
Loading historical data...
Loading historical data...
Loading historical data...
Loading historical data...

Documentation

Showing up to 5 results
|